Location: Newark
(5.8900°S, 42.6378°W)
Time: 10:57:39
(UTC+00:00)

Tiros 1 despin weight - Visible Passes

Search period start: 23 September 2019 00:00
Search period end: 03 October 2019 00:00
Orbit: 594 x 642 km, 48.2° (Epoch: 22 September)

Date Brightness Start Highest point End Pass type
(mag) Time Alt. Az. Time Alt. Az. Time Alt. Az.
23 Sep ? 21:41:52 10° NE 21:41:56 10° NE 21:41:56 10° NE visible
24 Sep ? 21:55:46 10° N 21:59:03 29° NE 21:59:03 29° NE visible
25 Sep ? 22:11:43 10° NW 22:16:08 87° NE 22:16:19 81° ESE visible
26 Sep ? 22:28:43 10° WNW 22:32:42 33° SW 22:33:44 29° SSW visible
27 Sep ? 21:03:39 10° NNW 21:07:52 46° NE 21:12:07 10° SE visible
27 Sep ? 22:47:20 10° WSW 22:49:21 13° SW 22:51:14 10° SSW visible
28 Sep ? 07:28:58 10° S 07:32:09 18° SE 07:35:20 10° E visible
28 Sep ? 21:20:03 10° NW 21:24:23 59° SW 21:28:46 10° SSE visible
29 Sep ? 07:44:18 10° SSW 07:48:47 45° SE 07:53:15 10° ENE visible
29 Sep ? 21:37:34 10° W 21:40:59 22° SW 21:44:26 10° S visible
30 Sep ? 06:22:53 10° SE 06:23:43 10° SE 06:24:33 10° ESE visible
30 Sep ? 08:00:40 10° SW 08:05:20 67° NW 08:09:58 10° NNE visible
01 Oct ? 06:38:55 22° SSE 06:40:26 26° SE 06:44:20 10° ENE visible
02 Oct ? 06:56:26 61° S 06:57:01 69° SE 07:01:40 10° NE visible
